sat.trackr.live / text

‹ back to catalog

STARLINK-2410

NORAD 47825 · 2021-018AQ

PAYLOAD ACTIVE UNKNOWN

§ Identity

Operator
Country
US
Launch date
2021-03-11
Launch site
AFETR
Launch vehicle
Mass (kg)
RCS (m²)

Purposes: comms

External: N2YO · Heavens-Above · Gunter

§ Orbital elements

Epoch: 2026-05-25T00:31:26.391936Z

Period
94.01 min
Inclination
53.1596°
Eccentricity
0.0002032
Mean motion
15.31687877 rev/d
Perigee alt
469.4 km
Apogee alt
472.2 km
Semi-major
6,848.9 km
B*
-2.3656e-5
RAAN
247.8134°
Arg perigee
82.9058°
Mean anomaly
277.2175°
Rev number
28,842

§ Raw data

STARLINK-24101 47825U 21018AQ  26145.02183324 -.00001099  00000+0 -23656-4 0  99952 47825  53.1596 247.8134 0002032  82.9058 277.2175 15.31687877288423

JSON: /api/v1/satellites/47825 · /tle

For live sub-satellite position, see the globe view (requires WebGL).

§ Visibility from observer

Set your observer location to see the next 7 days of passes ≥ 10°. The values pass through the URL so the page stays shareable.

No JS? Fill the form by hand. The geolocation button needs JavaScript.